1501488001.04,17746,23.13,74736.0,13.57,9.61,9.71,0,*4F
1501488002.27,17747,23.13,74736.5,13.55,9.77,9.71,0,*4B
1501488003.54,17748,23.13,74736.0,13.57,9.77,9.77,0,*40
1501488004.79,17749,23.13,74738.3,13.55,9.77,9.89,0,*42
1501488006.0,17750,23.13,74736.0,13.55,9.91,9.99,0,*43
1501488007.24,17751,23.13,74736.3,13.57,9.71,9.77,0,*4E
1501488008.47,17752,23.13,74736.8,13.55,9.77,9.71,0,*4F
1501488009.7,17753,23.13,74734.0,13.55,9.89,9.99,0,*49
1501488010.96,17754,23.13,74736.5,13.55,9.77,9.81,0,*46
1501488012.22,17755,23.13,74738.5,13.55,9.77,9.89,0,*4F
1501488013.44,17756,23.13,74738.8,13.55,10.03,10.09,0,*47
1501488014.67,17757,23.13,74738.0,13.53,9.77,9.85,0,*47
1501488015.88,17758,23.13,74736.0,13.53,9.77,9.75,0,*47
1501488017.06,17759,23.13,74736.3,13.53,9.63,9.63,0,*44
1501488018.26,17760,23.13,74738.5,13.51,9.71,9.75,0,*48
1501488019.47,17761,23.13,74736.8,13.53,9.75,9.77,0,*4D
1501488020.69,17762,23.13,74736.8,13.51,9.61,9.63,0,*4C
1501488021.93,17763,23.13,74736.8,13.53,9.85,9.77,0,*40
1501488023.12,17764,23.13,74738.0,13.51,9.63,9.63,0,*48
1501488024.31,17765,23.13,74736.0,13.51,9.63,9.63,0,*49
1501488025.53,17766,23.13,74732.0,13.51,9.53,9.63,0,*49
1501488026.78,17767,23.13,74736.3,13.51,9.61,9.61,0,*4B
1501488027.97,17768,23.13,74736.3,13.51,9.63,9.63,0,*44
1501488029.23,17769,23.13,74736.3,13.51,9.53,9.53,0,*45
1501488030.49,17770,23.13,74736.3,13.47,9.49,9.49,0,*4A
1501488031.74,17771,23.13,74736.3,13.47,9.61,9.61,0,*4B
1501488032.97,17772,23.13,74738.5,13.47,9.67,9.77,0,*49
1501488034.18,17773,23.13,74736.8,13.49,9.75,9.81,0,*4C
1501488035.42,17774,23.13,74738.0,13.47,9.89,9.91,0,*47
1501488036.63,17775,23.13,74732.8,13.47,9.99,10.03,0,*74
1501488037.82,17776,23.13,74738.8,13.49,10.05,10.09,0,*4E
1501488039.05,17777,23.13,74736.8,13.47,10.05,10.13,0,*4A
1501488040.25,17778,23.13,74736.3,13.49,10.09,10.17,0,*43
1501488041.47,17779,23.13,74738.0,13.47,10.03,10.13,0,*42
1501488042.66,17780,23.13,74734.3,13.49,10.05,10.09,0,*47
1501488043.85,17781,23.13,74740.5,13.49,9.95,10.03,0,*7D
1501488045.08,17782,23.13,74734.5,13.49,9.81,9.85,0,*4D
1501488046.26,17783,23.13,74736.5,13.49,9.75,9.75,0,*48
1501488047.5,17784,23.13,74736.3,13.47,9.71,9.77,0,*47
1501488048.69,17785,23.13,74738.0,13.49,10.03,10.05,0,*48
1501488049.9,17786,23.13,74736.8,13.49,9.85,9.91,0,*48
1501488051.11,17787,23.13,74736.0,13.47,9.91,10.03,0,*71
1501488052.29,17788,23.13,74732.8,13.49,9.91,9.95,0,*47
1501488053.47,17789,23.13,74738.8,13.49,9.75,9.71,0,*46
1501488054.72,17790,23.13,74736.8,13.47,9.77,9.77,0,*44
1501488055.99,17791,23.13,74732.3,13.47,9.77,9.81,0,*4C
1501488057.19,17792,23.13,74738.8,13.47,9.91,9.99,0,*4E
1501488058.42,17793,23.13,74734.0,13.47,10.13,10.13,0,*47
1501488059.65,17794,23.13,74736.5,13.47,9.89,9.91,0,*49
1501488060.89,17795,23.13,74734.3,13.47,9.77,9.91,0,*49
1501488062.07,17796,23.13,74736.3,13.49,9.95,10.05,0,*7D
1501488063.26,17797,23.13,74738.3,13.49,9.91,10.03,0,*7E
1501488064.47,17798,23.13,74736.3,13.47,9.99,10.05,0,*71
1501488065.66,17799,23.13,74736.0,13.49,9.95,10.03,0,*74
1501488066.84,17800,23.13,74736.0,13.49,9.71,9.75,0,*48
1501488068.05,17801,23.13,74736.8,13.49,9.81,9.91,0,*4C
1501488069.25,17802,23.13,74736.5,13.49,9.53,9.71,0,*4E
1501488070.46,17803,23.13,74738.8,13.47,9.67,9.71,0,*46
1501488071.67,17804,23.13,74738.8,13.49,9.85,9.95,0,*49
1501488072.88,17805,23.13,74736.8,13.49,9.85,9.91,0,*4C
1501488074.06,17806,23.13,74736.3,13.49,9.71,9.75,0,*4E
1501488075.24,17807,23.13,74738.8,13.49,9.63,9.75,0,*4C
1501488076.44,17808,23.13,74738.8,13.49,9.61,9.71,0,*45
1501488077.64,17809,23.13,74738.5,13.49,9.49,9.63,0,*4D
1501488078.86,17810,23.13,74736.8,13.49,9.71,9.81,0,*42
1501488080.09,17811,23.13,74738.8,13.49,9.77,9.89,0,*4D
1501488081.33,17812,23.13,74736.3,13.47,9.71,9.81,0,*4E
1501488082.54,17813,23.13,74738.8,13.49,9.71,9.85,0,*45
1501488083.72,17814,23.13,74736.8,13.49,9.75,9.91,0,*43
1501488084.93,17815,23.13,74736.5,13.49,9.43,9.49,0,*42
1501488086.1,17816,23.13,74738.5,13.49,9.63,9.71,0,*48
1501488087.34,17817,23.13,74738.8,13.47,9.71,9.81,0,*4B
1501488088.55,17818,23.13,74738.0,13.49,9.85,9.95,0,*44
1501488089.77,17819,23.13,74740.0,13.49,9.85,10.03,0,*72
1501488090.99,17820,23.13,74736.8,13.49,10.09,10.19,0,*4F
1501488092.18,17821,23.13,74736.8,13.49,10.03,10.17,0,*4A
1501488093.4,17822,23.13,74742.8,13.49,9.81,10.03,0,*7E
1501488094.62,17823,23.13,74738.3,13.53,10.05,10.19,0,*4B
1501488095.83,17824,23.13,74734.0,13.51,9.91,10.05,0,*76
1501488097.05,17825,23.13,74738.8,13.53,9.99,10.31,0,*7A
1501488098.3,17826,23.13,74736.0,13.51,10.05,10.19,0,*4C
1501488099.52,17827,23.13,74736.8,13.53,9.89,10.09,0,*72
1501488100.73,17828,23.13,74736.8,13.53,9.77,9.95,0,*41
1501488101.93,17829,23.13,74736.0,13.53,9.63,9.85,0,*44
1501488103.17,17830,23.13,74736.3,13.51,9.85,10.05,0,*76
1501488104.39,17831,23.13,74736.8,13.53,9.99,10.19,0,*75
1501488105.64,17832,23.13,74738.5,13.55,9.81,10.03,0,*72
1501488106.88,17833,23.13,74738.5,13.57,9.81,10.03,0,*71
1501488108.14,17834,23.13,74734.3,13.57,10.09,10.23,0,*4C
1501488109.38,17835,23.13,74738.0,13.57,9.99,10.27,0,*78
1501488110.6,17836,23.13,74738.8,13.57,9.99,10.17,0,*78
1501488111.83,17837,23.13,74738.5,13.57,10.09,10.33,0,*4E
1501488113.05,17838,23.13,74738.3,13.57,10.09,10.33,0,*41
1501488114.27,17839,23.13,74738.3,13.59,10.03,10.37,0,*40
1501488115.49,17840,23.13,74736.3,13.59,10.03,10.31,0,*48
1501488116.71,17841,23.13,74738.0,13.59,10.17,10.41,0,*4B
1501488117.96,17842,23.13,74738.5,13.63,9.89,10.31,0,*79
1501488119.21,17843,23.13,74738.0,13.63,9.85,10.31,0,*74
1501488120.42,17844,23.13,74738.0,13.63,9.95,10.31,0,*72
1501488121.62,17845,23.13,74736.8,13.63,10.05,10.51,0,*44
1501488122.81,17846,23.13,74738.0,13.67,9.91,10.43,0,*75
1501488124.04,17847,23.13,74736.5,13.67,9.81,10.33,0,*72
1501488125.26,17848,23.13,74740.3,13.67,9.71,10.23,0,*73
1501488126.53,17849,23.13,74736.3,13.69,9.81,10.37,0,*76
1501488127.75,17850,23.13,74736.3,13.71,9.39,10.13,0,*72
1501488128.99,17851,23.13,74742.3,13.69,9.35,10.03,0,*77
1501488130.24,17852,23.13,74738.3,13.69,9.39,10.13,0,*79
1501488131.48,17853,23.13,74738.0,13.69,9.25,9.85,0,*42
1501488132.71,17854,23.13,74742.8,13.71,8.97,9.61,0,*4E
1501488133.94,17855,23.13,74736.3,13.71,9.19,9.85,0,*42
1501488135.15,17856,23.13,74738.5,13.71,9.29,9.85,0,*42
1501488136.36,17857,23.13,74742.3,13.71,9.35,10.03,0,*78
1501488137.57,17858,23.13,74742.0,13.73,9.21,9.75,0,*49
1501488138.84,17859,23.13,74740.5,13.73,9.19,9.53,0,*47
1501488140.04,17860,23.13,74736.3,13.75,9.03,9.43,0,*41
1501488141.26,17861,23.13,74740.8,13.75,9.01,9.43,0,*42
1501488142.52,17862,23.13,74738.8,13.77,9.01,9.35,0,*42
1501488143.75,17863,23.06,74738.8,13.77,9.15,9.47,0,*43
1501488144.97,17864,23.13,74738.8,13.75,9.15,9.47,0,*46
1501488146.18,17865,23.13,74740.5,13.75,9.11,9.47,0,*43
1501488147.4,17866,23.13,74738.0,13.75,9.03,9.53,0,*46
1501488148.67,17867,23.13,74740.5,13.77,9.01,9.53,0,*47
1501488149.88,17868,23.13,74736.8,13.77,9.03,9.47,0,*4F
1501488151.1,17869,23.13,74740.8,13.79,9.19,9.67,0,*49
1501488152.3,17870,23.13,74740.5,13.79,8.89,9.29,0,*43
1501488153.53,17871,23.13,74740.3,13.79,8.97,9.35,0,*40
1501488154.76,17872,23.13,74738.8,13.79,8.97,9.35,0,*43
1501488155.97,17873,23.13,74740.3,13.81,8.79,9.29,0,*48
1501488157.18,17874,23.13,74738.5,13.81,8.79,9.29,0,*4F
1501488158.45,17875,23.13,74740.0,13.85,9.01,9.53,0,*49
1501488159.7,17876,23.13,74742.3,13.81,8.97,9.39,0,*4C
1501488160.93,17877,23.13,74736.0,13.81,8.93,9.29,0,*48
1501488162.19,17878,23.13,74738.3,13.85,9.11,9.49,0,*4E
1501488163.42,17879,23.13,74740.5,13.85,9.21,9.61,0,*46
1501488164.63,17880,23.13,74738.8,13.85,9.33,9.71,0,*42
1501488165.84,17881,23.13,74736.8,13.87,9.15,9.47,0,*40
1501488167.05,17882,23.13,74740.5,13.91,9.07,9.47,0,*47
1501488168.26,17883,23.13,74740.5,13.87,9.15,9.47,0,*42
1501488169.47,17884,23.13,74740.5,13.89,9.25,9.49,0,*46
1501488170.66,17885,23.13,74742.8,13.89,9.29,9.67,0,*47
1501488171.88,17886,23.13,74740.3,13.89,9.47,9.81,0,*44
1501488173.11,17887,23.13,74738.0,13.91,9.35,9.71,0,*46
1501488174.35,17888,23.13,74740.5,13.93,9.19,9.49,0,*4E
1501488175.53,17889,23.13,74738.5,13.93,9.21,9.63,0,*4C
1501488176.74,17890,23.06,74738.3,13.93,8.97,9.33,0,*4D
1501488177.97,17891,23.13,74742.0,13.91,8.89,9.29,0,*4A
1501488179.17,17892,23.13,74742.0,13.93,9.29,9.61,0,*4C
1501488180.36,17893,23.13,74740.3,13.93,9.43,9.71,0,*40
1501488181.61,17894,23.13,74740.3,13.95,9.53,9.77,0,*46
1501488182.85,17895,23.13,74740.3,13.95,9.35,9.75,0,*45
1501488184.06,17896,23.13,74740.3,13.97,9.57,9.91,0,*4A
1501488185.27,17897,23.13,74742.3,13.97,9.57,9.75,0,*41
1501488186.52,17898,23.13,74738.3,13.99,9.61,9.77,0,*47
1501488187.76,17899,23.13,74740.3,13.99,9.81,10.03,0,*73
1501488189.01,17900,23.13,74742.0,13.99,9.81,10.03,0,*72
1501488190.22,17901,23.13,74738.0,14.01,9.71,9.89,0,*40
1501488191.46,17902,23.13,74738.8,13.99,9.67,9.81,0,*4A
1501488192.66,17903,23.13,74742.0,14.01,9.57,9.71,0,*41
1501488193.87,17904,23.13,74740.8,14.05,9.67,9.85,0,*4A
1501488195.09,17905,23.13,74736.5,14.03,9.53,9.63,0,*42
1501488196.32,17906,23.13,74738.8,14.03,9.71,9.85,0,*49
1501488197.55,17907,23.13,74742.0,14.03,9.81,9.99,0,*4A
1501488198.76,17908,23.13,74742.8,14.05,9.75,9.89,0,*49
1501488199.99,17909,23.13,74738.5,14.09,9.57,9.77,0,*45
1501488201.19,17910,23.13,74742.5,14.09,9.49,9.71,0,*44
1501488202.42,17911,23.13,74738.0,14.09,9.61,9.89,0,*48
1501488203.62,17912,23.06,74738.0,14.09,9.61,9.91,0,*42
1501488204.81,17913,23.13,74740.5,14.09,9.71,10.13,0,*70
1501488206.05,17914,23.13,74736.5,14.11,9.49,9.91,0,*47
1501488207.3,17915,23.13,74738.5,14.11,9.49,9.77,0,*4E
1501488208.57,17916,23.13,74738.8,14.11,9.49,9.81,0,*44
1501488209.79,17917,23.13,74740.8,14.11,9.35,9.71,0,*41
1501488210.99,17918,23.13,74742.0,14.11,9.21,9.67,0,*4C
1501488212.19,17919,23.13,74742.0,14.11,9.29,9.67,0,*45
1501488213.45,17920,23.13,74740.3,14.11,9.35,9.77,0,*43
1501488214.66,17921,23.13,74742.0,14.15,9.43,9.91,0,*4F
1501488215.9,17922,23.13,74742.5,14.15,9.49,10.03,0,*75
1501488217.1,17923,23.13,74740.8,14.13,9.61,10.03,0,*78
1501488218.36,17924,23.13,74740.5,14.15,9.39,9.85,0,*42
1501488219.6,17925,23.13,74736.3,14.15,9.39,9.75,0,*4C
1501488220.78,17926,23.13,74742.8,14.17,9.21,9.67,0,*47
1501488221.96,17927,23.13,74738.5,14.17,9.33,9.75,0,*46
1501488223.19,17928,23.13,74740.3,14.17,9.35,9.77,0,*4D
1501488224.37,17929,23.13,74740.3,14.17,9.29,9.75,0,*43
1501488225.57,17930,23.13,74740.3,14.19,9.21,9.71,0,*49
1501488226.78,17931,23.13,74740.3,14.19,9.25,9.67,0,*4B
1501488227.98,17932,23.13,74738.3,14.19,9.21,9.67,0,*4C
1501488229.22,17933,23.13,74736.3,14.19,9.15,9.61,0,*4C
1501488230.48,17934,23.13,74744.0,14.19,9.35,9.77,0,*4E
1501488231.74,17935,23.06,74736.3,14.19,9.35,9.81,0,*46
1501488232.98,17936,23.13,74742.5,14.21,9.47,9.81,0,*4B
1501488234.19,17937,23.13,74742.3,14.21,9.21,9.67,0,*42
1501488235.43,17938,23.13,74742.0,14.21,9.35,9.67,0,*48
1501488236.65,17939,23.13,74740.8,14.23,9.39,9.75,0,*44
1501488237.85,17940,23.13,74742.0,14.23,9.39,9.71,0,*4E
1501488239.1,17941,23.13,74736.5,14.23,9.49,9.81,0,*47
1501488240.3,17942,23.13,74738.5,14.23,9.39,9.63,0,*4F
1501488241.51,17943,23.13,74742.0,14.23,9.35,9.71,0,*41
1501488242.71,17944,23.13,74738.8,14.25,9.33,9.63,0,*45
1501488243.94,17945,23.13,74740.3,14.25,9.21,9.39,0,*48
1501488245.14,17946,23.13,74738.8,14.27,9.21,9.39,0,*49
1501488246.35,17947,23.13,74738.8,14.27,9.33,9.57,0,*43
1501488247.57,17948,23.13,74736.3,14.25,9.43,9.67,0,*4A
1501488248.75,17949,23.13,74742.8,14.27,9.47,9.63,0,*49
1501488249.99,17950,23.13,74736.0,14.27,9.39,9.53,0,*4B
1501488251.2,17951,23.13,74736.5,14.27,9.19,9.29,0,*45
1501488252.42,17952,23.13,74742.3,14.27,8.87,9.01,0,*4A
1501488253.63,17953,23.06,74736.3,14.27,8.87,8.89,0,*4A
1501488254.86,17954,23.13,74740.5,14.25,9.19,9.29,0,*42
1501488256.05,17955,23.06,74736.8,14.27,9.33,9.43,0,*45
1501488257.24,17956,23.13,74738.8,14.27,9.47,9.43,0,*45
1501488258.46,17957,23.13,74736.8,14.27,9.07,9.19,0,*4F
1501488259.69,17958,23.13,74738.8,14.25,9.19,9.21,0,*46
1501488260.93,17959,23.13,74738.0,14.27,9.39,9.53,0,*42
1501488262.15,17960,23.13,74742.3,14.27,9.39,9.47,0,*4D
1501488263.33,17961,23.13,74738.3,14.27,9.47,9.63,0,*43
1501488264.56,17962,23.13,74736.3,14.25,9.53,9.63,0,*47
1501488265.74,17963,23.13,74740.3,14.27,9.21,9.21,0,*47
1501488266.94,17964,23.13,74740.3,14.25,9.21,9.29,0,*4A
1501488268.12,17965,23.13,74738.5,14.27,9.21,9.29,0,*49
1501488269.33,17966,23.13,74738.0,14.25,9.33,9.33,0,*40
1501488270.52,17967,23.13,74738.5,14.27,9.43,9.47,0,*47
1501488271.73,17968,23.13,74738.3,14.27,9.43,9.53,0,*4D
1501488272.95,17969,23.13,74738.3,14.25,9.43,9.47,0,*4B
1501488274.21,17970,23.13,74742.8,14.25,9.53,9.53,0,*47
1501488275.4,17971,23.13,74740.5,14.27,9.47,9.47,0,*44
1501488276.63,17972,23.13,74738.5,14.27,9.57,9.57,0,*47
1501488277.89,17973,23.13,74738.0,14.25,9.85,9.89,0,*48
1501488279.12,17974,23.13,74742.3,14.25,10.05,10.09,0,*4F
1501488280.3,17975,23.13,74738.0,14.27,9.99,9.99,0,*40
1501488281.5,17976,23.13,74740.5,14.27,10.09,10.17,0,*4C
1501488282.72,17977,23.13,74740.8,14.25,9.99,10.05,0,*7D
1501488283.92,17978,23.13,74738.8,14.27,10.05,10.05,0,*4D
1501488285.12,17979,23.13,74738.5,14.27,10.09,10.05,0,*40
1501488286.32,17980,23.13,74742.0,14.27,9.99,10.05,0,*77
1501488287.52,17981,23.13,74742.5,14.27,10.05,10.17,0,*48
1501488288.77,17982,23.13,74740.3,14.27,10.19,10.23,0,*41
1501488289.97,17983,23.13,74740.8,14.27,10.09,10.09,0,*49
1501488291.19,17984,23.13,74738.5,14.25,10.05,10.17,0,*4F
1501488292.44,17985,23.13,74736.5,14.31,10.23,10.27,0,*4C
1501488293.68,17986,23.13,74738.5,14.31,10.27,10.37,0,*4A
1501488294.89,17987,23.13,74742.0,14.31,10.27,10.43,0,*48
1501488296.09,17988,23.06,74738.3,14.31,10.43,10.47,0,*41
1501488297.34,17989,23.13,74742.0,14.31,10.23,10.23,0,*44
1501488298.61,17990,23.13,74740.8,14.33,10.31,10.41,0,*49
1501488299.83,17991,23.13,74740.3,14.33,10.03,10.05,0,*49
1501488301.01,17992,23.13,74740.3,14.31,9.99,9.99,0,*4E
1501488302.23,17993,23.13,74738.0,14.33,10.03,10.05,0,*4B
1501488303.51,17994,23.13,74736.5,14.33,10.27,10.31,0,*4D
1501488304.73,17995,23.13,74738.0,14.31,10.19,10.09,0,*48
1501488305.94,17996,23.13,74736.3,14.33,10.03,9.95,0,*7F
1501488307.2,17997,23.13,74738.3,14.33,9.85,9.85,0,*49
1501488308.47,17998,23.13,74736.8,14.33,9.81,9.81,0,*46
1501488309.68,17999,23.13,74736.5,14.33,9.75,9.71,0,*43
1501488310.9,18000,23.13,74736.8,14.33,10.05,10.05,0,*41
1501488312.13,18001,23.13,74740.5,14.33,10.17,10.13,0,*44
1501488313.33,18002,23.13,74742.8,14.31,10.13,10.03,0,*40
1501488314.58,18003,23.13,74740.0,14.33,10.23,10.09,0,*4A
1501488315.81,18004,23.13,74738.5,14.31,10.33,10.23,0,*46
1501488317.09,18005,23.13,74738.5,14.33,10.31,10.19,0,*4E
1501488318.33,18006,23.13,74742.5,14.31,10.37,10.27,0,*44
1501488319.57,18007,23.13,74740.8,14.33,10.47,10.37,0,*41
1501488320.78,18008,23.13,74736.8,14.31,10.47,10.37,0,*4C
1501488322.03,18009,23.13,74740.8,14.33,10.47,10.41,0,*4E
1501488323.27,18010,23.13,74742.0,14.33,10.57,10.47,0,*41
1501488324.48,18011,23.13,74740.0,14.33,10.51,10.47,0,*46
1501488325.73,18012,23.13,74738.8,14.33,10.69,10.61,0,*4A
1501488327.0,18013,23.13,74738.8,14.33,10.79,10.71,0,*4B
1501488328.19,18014,23.13,74740.5,14.35,10.51,10.47,0,*45
1501488329.4,18015,23.13,74738.0,14.35,10.57,10.51,0,*45
1501488330.64,18016,23.13,74736.3,14.37,10.43,10.41,0,*40
1501488331.89,18017,23.13,74738.3,14.35,10.23,10.23,0,*41
1501488333.17,18018,23.13,74736.0,14.33,10.31,10.27,0,*4F
1501488334.39,18019,23.13,74736.8,14.33,10.05,10.13,0,*4E
1501488335.62,18020,23.13,74736.3,14.35,10.13,10.27,0,*42
1501488336.87,18021,23.13,74738.5,14.33,10.17,10.27,0,*41
1501488338.1,18022,23.13,74736.5,14.31,10.13,10.23,0,*40
1501488339.33,18023,23.13,74740.3,14.33,10.51,10.61,0,*43
1501488340.52,18024,23.13,74738.8,14.35,10.51,10.69,0,*4A
1501488341.78,18025,23.13,74736.8,14.33,10.57,10.61,0,*43
1501488343.0,18026,23.13,74738.8,14.31,10.47,10.65,0,*47
1501488344.23,18027,23.13,74736.3,14.33,10.51,10.57,0,*42
1501488345.48,18028,23.13,74740.3,14.33,10.37,10.47,0,*4C
1501488346.71,18029,23.13,74736.0,14.35,10.23,10.37,0,*49
1501488347.94,18030,23.13,74742.3,14.35,10.17,10.27,0,*47
1501488349.13,18031,23.13,74740.3,14.35,10.03,10.13,0,*44
1501488350.39,18032,23.13,74742.0,14.33,10.17,10.31,0,*44
1501488351.61,18033,23.06,74734.3,14.33,10.03,10.13,0,*40
1501488352.86,18034,23.13,74738.3,14.33,10.03,10.23,0,*44
1501488354.09,18035,23.13,74738.8,14.33,9.85,9.95,0,*46
1501488355.31,18036,23.13,74736.5,14.33,9.95,10.13,0,*72
1501488356.56,18037,23.13,74738.8,14.33,10.13,10.27,0,*42
1501488357.79,18038,23.13,74738.5,14.33,9.85,9.95,0,*4B
1501488359.04,18039,23.06,74738.3,14.33,10.03,10.27,0,*4D
1501488360.26,18040,23.13,74736.8,14.33,10.03,10.13,0,*44
1501488361.5,18041,23.13,74740.0,14.33,9.95,10.23,0,*71
1501488362.73,18042,23.13,74740.5,14.31,10.03,10.23,0,*47
1501488363.94,18043,23.13,74742.8,14.33,10.03,10.17,0,*43
1501488365.16,18044,23.13,74742.3,14.33,10.03,10.05,0,*47
1501488366.41,18045,23.13,74736.5,14.33,10.13,10.27,0,*47
1501488367.62,18046,23.13,74736.5,14.33,9.95,10.03,0,*74
1501488368.88,18047,23.13,74738.0,14.33,10.13,10.23,0,*41
1501488370.13,18048,23.13,74738.5,14.33,10.17,10.31,0,*49
1501488371.38,18049,23.13,74736.5,14.33,10.13,10.23,0,*4F
1501488372.62,18050,23.13,74742.0,14.33,9.81,9.95,0,*41
1501488373.84,18051,23.13,74740.3,14.33,9.91,10.05,0,*70
1501488375.09,18052,23.13,74738.3,14.33,10.13,10.23,0,*45
1501488376.31,18053,23.13,74736.8,14.33,10.03,10.17,0,*42
1501488377.53,18054,23.13,74742.0,14.33,9.91,10.05,0,*75
1501488378.71,18055,23.13,74740.3,14.35,9.91,10.03,0,*74
1501488379.9,18056,23.13,74740.5,14.35,9.95,10.13,0,*72
1501488381.1,18057,23.13,74740.0,14.35,10.03,10.13,0,*44
1501488382.32,18058,23.13,74742.3,14.35,10.17,10.41,0,*49
1501488383.54,18059,23.13,74742.8,14.35,10.31,10.51,0,*4D
1501488384.77,18060,23.13,74738.8,14.37,10.05,10.17,0,*40
1501488386.02,18061,23.13,74740.0,14.37,10.09,10.27,0,*4E
1501488387.27,18062,23.13,74740.5,14.37,10.31,10.51,0,*47
1501488388.51,18063,23.13,74738.8,14.37,10.43,10.61,0,*40
1501488389.78,18064,23.13,74736.5,14.37,10.31,10.41,0,*40
1501488391.02,18065,23.13,74738.5,14.39,10.19,10.37,0,*44
1501488392.22,18066,23.13,74740.0,14.39,10.33,10.47,0,*48
1501488393.44,18067,23.13,74740.3,14.39,10.09,10.19,0,*4B
1501488394.67,18068,23.13,74740.8,14.41,10.33,10.47,0,*49
1501488395.91,18069,23.13,74738.5,14.39,10.23,10.37,0,*41
1501488397.11,18070,23.13,74736.8,14.39,9.77,9.91,0,*44
1501488398.33,18071,23.13,74736.8,14.39,9.81,9.91,0,*4C
1501488399.53,18072,23.13,74738.5,14.39,9.61,9.71,0,*4F
1501488400.76,18073,23.13,74736.0,14.39,9.53,9.61,0,*4E
1501488401.97,18074,23.13,74738.3,14.39,9.67,9.81,0,*40
1501488403.2,18075,23.13,74736.8,14.37,10.05,10.09,0,*4B
1501488404.42,18076,23.13,74736.3,14.35,10.05,10.27,0,*46
1501488405.68,18077,23.13,74736.3,14.37,10.17,10.19,0,*4B
1501488406.9,18078,23.13,74736.0,14.39,10.23,10.33,0,*45
1501488408.11,18079,23.13,74736.8,14.39,10.43,10.57,0,*40
1501488409.3,18080,23.13,74738.5,14.39,10.47,10.55,0,*40
1501488410.51,18081,23.13,74736.5,14.39,10.55,10.57,0,*40
1501488411.77,18082,23.13,74738.8,14.41,10.23,10.37,0,*4B
1501488413.01,18083,23.13,74738.0,14.41,10.47,10.57,0,*4E
1501488414.24,18084,23.13,74738.5,14.41,10.55,10.57,0,*4A
1501488415.47,18085,23.13,74736.3,14.41,10.43,10.57,0,*4C
1501488416.69,18086,23.13,74736.3,14.41,10.43,10.55,0,*4D
1501488417.95,18087,23.13,74736.8,14.41,10.31,10.37,0,*4D
1501488419.2,18088,23.13,74738.5,14.41,10.09,10.19,0,*45
1501488420.43,18089,23.13,74738.3,14.39,10.13,10.31,0,*4A
1501488421.68,18090,23.13,74738.0,14.41,10.09,10.23,0,*45
1501488422.89,18091,23.13,74738.5,14.39,9.89,10.03,0,*79
1501488424.09,18092,23.13,74738.5,14.39,10.09,10.33,0,*49
1501488425.31,18093,23.13,74736.5,14.39,10.23,10.43,0,*47
1501488426.54,18094,23.13,74738.5,14.41,10.43,10.57,0,*4C
1501488427.8,18095,23.13,74738.3,14.41,10.23,10.37,0,*4D
1501488429.05,18096,23.13,74742.3,14.41,10.09,10.31,0,*40
1501488430.28,18097,23.13,74740.5,14.41,10.13,10.33,0,*48
1501488431.52,18098,23.13,74738.3,14.41,10.03,10.19,0,*4E
1501488432.76,18099,23.13,74736.5,14.41,10.23,10.43,0,*42
1501488433.97,18100,23.13,74742.3,14.41,10.33,10.43,0,*42
1501488435.19,18101,23.13,74738.0,14.43,9.85,10.03,0,*70
1501488436.41,18102,23.13,74738.0,14.41,9.91,10.09,0,*7E
1501488437.6,18103,23.13,74738.5,14.39,9.91,10.09,0,*70
1501488438.81,18104,23.13,74738.5,14.41,9.99,10.13,0,*7B
1501488440.01,18105,23.13,74740.3,14.43,9.95,10.13,0,*74
1501488441.23,18106,23.13,74736.3,14.43,9.85,10.05,0,*71
1501488442.43,18107,23.13,74736.0,14.43,10.13,10.33,0,*42
1501488443.66,18108,23.13,74736.5,14.45,9.95,10.19,0,*75
1501488444.9,18109,23.13,74736.3,14.45,9.95,10.19,0,*74
1501488446.14,18110,23.13,74738.5,14.45,9.99,10.27,0,*7D
1501488447.37,18111,23.13,74738.8,14.45,10.19,10.43,0,*4E
1501488448.61,18112,23.13,74738.5,14.45,10.19,10.51,0,*4E
1501488449.85,18113,23.13,74742.0,14.45,10.19,10.51,0,*4F
1501488451.07,18114,23.13,74738.5,14.45,10.09,10.43,0,*4A
1501488452.31,18115,23.13,74742.0,14.47,10.31,10.65,0,*46
1501488453.52,18116,23.13,74740.3,14.47,10.17,10.61,0,*45
1501488454.71,18117,23.13,74742.5,14.47,10.17,10.43,0,*44
1501488455.93,18118,23.13,74740.8,14.53,10.03,10.37,0,*48
1501488457.15,18119,23.13,74738.0,14.49,10.13,10.47,0,*44
1501488458.37,18120,23.13,74740.8,14.49,10.09,10.47,0,*45
1501488459.59,18121,23.13,74742.0,14.49,10.13,10.47,0,*4F
1501488460.79,18122,23.13,74742.5,14.53,10.03,10.47,0,*46
1501488461.98,18123,23.13,74740.3,14.53,9.95,10.43,0,*74
1501488463.2,18124,23.13,74742.0,14.55,10.13,10.51,0,*40
1501488464.43,18125,23.13,74738.0,14.55,10.03,10.37,0,*40
1501488465.69,18126,23.13,74738.8,14.55,9.85,10.37,0,*75
1501488466.93,18127,23.13,74742.0,14.55,10.03,10.37,0,*42
1501488468.14,18128,23.13,74742.5,14.55,10.03,10.43,0,*4E
1501488469.36,18129,23.13,74742.8,14.57,10.05,10.41,0,*49
1501488470.63,18130,23.13,74740.3,14.59,9.81,10.23,0,*7F
1501488471.85,18131,23.13,74738.5,14.59,9.99,10.33,0,*76
1501488473.07,18132,23.13,74740.5,14.59,10.13,10.43,0,*48
1501488474.33,18133,23.13,74742.3,14.59,9.81,10.13,0,*7F
1501488475.55,18134,23.13,74736.5,14.61,9.81,10.09,0,*78
1501488476.77,18135,23.13,74742.3,14.63,10.13,10.33,0,*41
1501488478.02,18136,23.13,74740.0,14.63,10.05,10.27,0,*40
1501488479.26,18137,23.13,74740.5,14.63,10.27,10.47,0,*47
1501488480.51,18138,23.13,74742.3,14.63,10.27,10.55,0,*4B
1501488481.74,18139,23.13,74740.3,14.67,10.37,10.47,0,*4C
1501488482.99,18140,23.13,74742.0,14.67,10.09,10.27,0,*49
1501488484.23,18141,23.13,74738.0,14.67,10.05,10.19,0,*49
1501488485.49,18142,23.13,74738.8,14.67,10.19,10.37,0,*4B
1501488486.71,18143,23.13,74740.3,14.71,10.33,10.51,0,*45
1501488487.91,18144,23.13,74742.8,14.69,10.03,10.13,0,*4E
1501488489.15,18145,23.13,74742.8,14.69,10.13,10.31,0,*4E
1501488490.4,18146,23.13,74740.8,14.71,10.13,10.31,0,*44
1501488491.64,18147,23.13,74738.8,14.75,10.23,10.33,0,*40
1501488492.86,18148,23.13,74740.3,14.77,10.33,10.37,0,*48
1501488494.1,18149,23.13,74742.0,14.75,10.37,10.43,0,*4C
1501488495.29,18150,23.13,74738.3,14.77,10.69,10.69,0,*45
1501488496.54,18151,23.13,74738.3,14.77,10.75,10.71,0,*40
1501488497.81,18152,23.13,74742.8,14.79,10.41,10.31,0,*4E
1501488498.99,18153,23.13,74736.3,14.81,10.51,10.43,0,*4C
1501488500.23,18154,23.13,74734.5,14.81,10.71,10.65,0,*4D
1501488501.47,18155,23.13,74736.3,14.81,10.65,10.65,0,*49
1501488502.69,18156,23.13,74736.5,14.83,10.93,10.93,0,*48
1501488503.89,18157,23.13,74738.0,14.83,10.89,10.89,0,*49
1501488505.09,18158,23.13,74738.3,14.83,10.89,10.89,0,*46
1501488506.31,18159,23.13,74738.8,14.83,10.69,10.69,0,*47
1501488507.49,18160,23.13,74738.3,14.85,10.89,10.89,0,*4B
1501488508.71,18161,23.13,74736.3,14.85,10.93,11.03,0,*42
1501488509.95,18162,23.13,74738.0,14.85,10.83,10.99,0,*42
1501488511.19,18163,23.13,74738.3,14.89,10.71,10.71,0,*44
1501488512.44,18164,23.13,74740.3,14.89,10.65,10.71,0,*46
1501488513.66,18165,23.13,74740.0,14.89,10.85,10.95,0,*43
1501488514.9,18166,23.13,74738.8,14.89,10.95,10.95,0,*41
1501488516.11,18167,23.13,74742.0,14.89,10.89,11.07,0,*47